Location: Unspecified
(51.0000°N, 12.0000°E)
Time: 02:27:07
(UTC+02:00)

ISS - Visible Passes

Search period start: 22 May 2018 00:00
Search period end: 01 June 2018 00:00
Orbit: 402 x 407 km, 51.6° (Epoch: 22 May)

Date Brightness Start Highest point End Pass type
(mag) Time Alt. Az. Time Alt. Az. Time Alt. Az.
22 May -3.8 01:29:59 10° W 01:33:16 79° N 01:36:33 10° E visible
22 May -3.7 03:06:31 10° W 03:09:41 48° SSW 03:12:51 10° SE visible
22 May -3.9 23:01:21 10° WSW 23:04:34 58° SSE 23:07:48 10° E visible
23 May -3.8 00:37:46 10° W 00:41:03 77° N 00:44:19 10° E visible
23 May -4.0 02:14:18 10° W 02:17:33 68° SSW 02:20:49 10° ESE visible
23 May -2.4 03:51:14 10° W 03:53:38 19° SW 03:56:01 10° S visible
23 May -3.4 22:09:21 10° SW 22:12:27 40° SSE 22:15:33 10° E visible
23 May -3.8 23:45:32 10° W 23:48:49 83° N 23:52:06 10° E visible
24 May -4.0 01:22:05 10° W 01:25:22 86° SSW 01:27:54 16° ESE visible
24 May -2.3 02:58:45 10° W 03:00:17 21° WSW 03:00:17 21° WSW visible
24 May -3.9 22:53:18 10° WSW 22:56:36 84° SSE 22:59:52 10° E visible
25 May -3.8 00:29:51 10° W 00:33:09 82° N 00:35:40 16° E visible
25 May -2.6 02:06:24 10° W 02:08:15 27° WSW 02:08:15 27° WSW visible
25 May -3.9 22:01:08 10° WSW 22:04:23 65° SSE 22:07:38 10° E visible
25 May -3.7 23:37:36 10° W 23:40:53 77° N 23:44:09 10° E visible
26 May -3.8 01:14:08 10° W 01:17:10 59° SW 01:17:10 59° SW visible
26 May -3.7 22:45:20 10° W 22:48:37 80° N 22:51:54 10° E visible
27 May -4.0 00:21:52 10° W 00:25:09 80° SSW 00:26:19 37° ESE visible
27 May -1.3 01:58:36 10° W 01:58:55 12° W 01:58:55 12° W visible
27 May -3.8 21:53:03 10° WSW 21:56:21 90° S 21:59:38 10° E visible
27 May -3.9 23:29:37 10° W 23:32:54 85° NNE 23:35:33 15° E visible
28 May -2.6 01:06:10 10° W 01:08:11 28° WSW 01:08:11 28° WSW visible
28 May -3.7 22:37:19 10° W 22:40:36 78° N 22:43:53 10° E visible
29 May -3.7 00:13:51 10° W 00:17:03 53° SSW 00:17:28 49° S visible
29 May -3.9 23:21:33 10° WNW 23:24:50 73° SSW 23:26:49 22° ESE visible
30 May -1.7 00:58:23 10° W 00:59:27 16° WSW 00:59:27 16° WSW visible
30 May -3.8 22:29:15 10° W 22:32:32 89° NNW 22:35:49 10° ESE visible
31 May -3.0 00:05:51 10° W 00:08:48 32° SSW 00:08:48 32° SSW visible
31 May -3.5 23:13:27 10° W 23:16:37 47° SSW 23:18:12 25° SE visible
